Location: Newcastle
(43.9170°N, 78.5830°W)
Time: 10:16:54
(UTC-05:00)

Daily predictions for brighter satellites

Satellite Brightness Start Highest point End
(mag) Time Altitude Azimuth Time Altitude Azimuth Time Altitude Azimuth
METEOR-M 4.5 18:12:03 10° S 18:17:23 76° WSW 18:22:46 10° NNW
Cosmos 44 Rocket 4.2 18:18:47 10° NNW 18:23:15 31° NE 18:27:47 10° ESE
COSMO-SKYMED 1 2.5 18:20:15 10° NNE 18:24:37 79° ESE 18:28:57 10° S
Ariane Rocket 4.4 18:20:16 10° S 18:25:09 46° W 18:30:04 10° NNW
MTI 3.9 18:22:06 10° NNE 18:25:13 51° E 18:28:19 10° S
Tiangong 2 1.7 18:22:39 10° W 18:25:46 54° SSW 18:28:53 10° ESE
Cosmos 1980 3.8 18:22:10 10° NNW 18:27:55 89° ENE 18:33:36 10° SSE
Cosmos 2285 Rocket 4.0 18:22:08 10° SSW 18:28:28 81° ESE 18:34:52 10° NNE
USA 267 4.2 18:24:54 10° ENE 18:30:33 32° NNE 18:36:12 10° NW
EO 1 Del DPAF 3.6 18:27:37 10° NNE 18:31:18 42° E 18:34:56 10° S
CENTAUR R/B 3.3 18:26:22 10° SSE 18:31:24 29° ESE 18:36:58 10° NE
FREGAT/IRIS 3.7 18:30:08 10° SE 18:32:36 24° ENE 18:35:04 10° NNE
Cosmos 2056 Rocket 3.9 18:29:35 10° NNW 18:35:00 75° WSW 18:40:25 10° SSE
SPOT 3 Rocket 3.5 18:35:16 10° SSE 18:40:27 78° ENE 18:45:42 10° NNW
Cosmos 1452 Rocket 3.7 18:36:08 10° NNW 18:41:17 51° ENE 18:46:23 10° SE
FengYun 1-2 T 4.3 18:38:34 10° SSE 18:43:56 56° ENE 18:49:18 10° N
Landsat 4 3.6 18:41:13 10° NNE 18:44:59 80° ESE 18:48:44 10° S
Cosmos 1674 Rocket 3.4 18:46:02 10° N 18:50:24 68° E 18:54:41 10° SSE
ALOS 3.3 18:48:13 10° S 18:52:45 50° W 18:57:18 10° NNW
Iridium 4 Rocket 3.6 18:49:58 10° N 18:54:44 42° E 18:59:03 10° SSE
Cosmos 158 Rocket 4.1 18:52:09 10° S 18:56:48 45° ESE 19:01:27 10° NNE
Lacrosse 5 3.1 18:52:49 10° WNW 18:57:34 41° SW 19:02:17 10° SSE
Cosmos 2219 Rocket 4.4 18:53:18 10° NW 18:58:06 29° WSW 19:02:53 10° SSW
Cosmos 1908 Rocket 3.8 18:54:43 10° SSE 18:58:59 45° E 19:03:15 10° NNE
ATLAS 3B R/B 3.7 18:52:06 10° WSW 18:58:59 46° NW 19:05:38 10° NNE
Cosmos 44 3.4 18:54:02 10° NNW 18:59:02 71° NE 19:04:16 10° SE
Cosmos 405 3.0 18:56:07 10° SSW 18:59:36 83° WNW 19:03:08 10° N
NOSS 3-2 (A) 3.9 18:54:14 10° SW 19:00:09 63° NW 19:06:47 10° NNE
CZ-4C R/B 4.1 18:55:39 10° NNW 19:00:50 22° NNE 19:04:38 15° ENE
Cosmos 1420 Rocket 4.0 18:57:42 10° NNW 19:02:58 64° ENE 19:08:12 10° SSE
SJ-6B 3.0 19:01:39 10° SE 19:05:15 45° ENE 19:08:56 10° N
BREEZE-M R/B 3.1 19:04:02 10° WNW 19:06:21 71° NNE 19:09:43 20° ESE
Cosmos 1733 Rocket 3.5 19:02:20 10° SSW 19:06:36 62° W 19:10:54 10° N
Okean 3 3.3 19:02:29 10° N 19:06:42 83° E 19:10:52 10° S
Cosmos 921 Rocket 3.6 19:03:08 10° N 19:07:22 38° ENE 19:10:05 19° SE
SL-8 R/B 3.8 19:03:13 10° SW 19:07:54 58° SSE 19:10:35 24° ENE
Cosmos 2237 Rocket 3.4 19:07:08 10° NW 19:12:26 44° WSW 19:17:43 10° S
Cosmos 2227 Rocket 2.7 19:07:15 10° SW 19:12:49 60° WNW 19:18:26 10° NNE
SL-16 R/B 2.1 19:10:05 10° NNW 19:15:47 84° ENE 19:21:27 10° SSE
Meteor 1-14 Rocket 4.3 19:11:14 10° S 19:17:00 87° E 19:22:57 10° N
Okean 1 3.4 19:13:35 10° N 19:17:31 53° E 19:21:24 10° SSE
Resurs 01 Rocket 2.3 19:19:14 30° E 19:19:50 32° ENE 19:23:46 10° N
Cosmos 1513 Rocket 4.4 19:14:28 10° N 19:20:52 78° E 19:27:07 10° SSE
H-2A R/B 3.9 19:18:08 10° S 19:21:56 47° W 19:25:43 10° NNW
Cosmos 1975 Rocket 3.3 19:20:19 10° N 19:24:36 46° ENE 19:26:50 25° SE
Cosmos 2297 Rocket 2.9 19:21:27 10° SW 19:26:59 54° WNW 19:32:33 10° NNE
Meteor 1-20 Rocket 4.2 19:24:21 10° S 19:30:03 88° W 19:35:54 10° N
Thor Agena Rocket 3.4 19:26:35 10° NNE 19:31:41 66° ESE 19:36:41 10° S
Cosmos 468 4.4 19:27:46 10° SSW 19:33:03 89° ESE 19:38:20 10° NNE
Cosmos 1603 4.1 19:28:38 10° NNW 19:34:01 42° ENE 19:35:21 36° E
USA 186 3.5 19:38:13 23° N 19:38:13 23° N 19:39:43 10° N
CZ-2D R/B 3.2 19:33:02 10° SSE 19:36:56 89° W 19:40:52 10° NNW
Envisat 2.9 19:31:55 10° SSE 19:36:59 77° ENE 19:42:05 10° N
Tsikada Rocket 4.0 19:31:47 10° S 19:38:03 61° E 19:44:23 10° NNE
ARGOS Delta rocket 3.7 19:33:40 10° NNE 19:38:36 71° E 19:43:14 10° S
USA 215 3.2 19:34:23 21° NE 19:39:00 77° SE 19:45:32 10° SW
Meteor 1-18 Rocket 4.5 19:34:06 10° NNW 19:39:41 68° W 19:45:10 10° S
SeaSat 1 2.4 19:35:40 15° SSE 19:39:47 85° WSW 19:44:45 10° NNW
USA 32 4.0 19:35:18 10° S 19:40:32 90° W 19:45:48 10° N
ERS-2 3.8 19:38:38 10° SSW 19:42:02 34° W 19:45:26 10° NNW
Cosmos 1269 Rocket 3.9 19:38:16 10° S 19:43:28 65° ESE 19:48:02 14° NNE
Cosmos 1633 4.0 19:43:29 10° SSW 19:46:49 38° WNW 19:50:11 10° N
CZ-3B R/B 4.4 19:36:31 10° SSW 19:49:27 51° SE 19:50:15 47° ESE
Cosmos 1110 Rocket 4.2 19:44:51 10° N 19:49:59 49° ENE 19:50:10 49° ENE
Sich 1 Rocket 4.0 19:48:46 10° SSW 19:53:14 62° W 19:57:41 10° N
CZ-3C R/B 4.4 19:50:04 10° SSE 19:52:24 13° SSE 19:52:24 13° SSE
Cosmos 1782 Rocket 3.7 19:52:04 10° SSW 19:56:30 76° W 20:00:57 10° N
Meteor 1-19 Rocket 4.0 19:51:10 10° N 19:56:44 80° E 19:59:39 29° SSE
Meteor 1-11 Rocket 4.5 19:54:10 10° S 20:01:38 36° NE 20:05:07 10° NNE
H-2A R/B 4.2 20:02:38 13° NNE 20:02:38 13° NNE 20:03:29 10° NNE
Tiangong 2 3.6 19:59:56 10° WSW 20:01:40 17° SW 20:01:40 17° SW
Cosmos 1437 Rocket 3.2 19:59:21 10° SSW 20:03:22 63° WNW 20:07:27 10° N
Meteor 2-4 Rocket 3.6 19:58:22 10° N 20:04:11 65° ENE 20:04:43 62° ESE
Cosmos 44 Rocket 4.4 20:00:09 10° NW 20:04:55 43° WSW 20:07:57 21° S
Cosmos 1939 Rocket 3.6 20:07:20 46° N 20:07:20 46° N 20:10:17 10° NNW
USA 267 3.2 20:11:38 55° E 20:12:53 65° NNE 20:19:21 10° NW
Cosmos 2227 4.0 20:07:29 10° SSW 20:13:12 77° ESE 20:13:30 74° ENE
ATLAS CENTAUR R/B 3.7 20:16:53 10° NNW 20:17:56 16° N 20:17:56 16° N
CENTAUR R/B 3.0 20:15:30 10° SW 20:21:31 58° NW 20:26:24 20° NNE
Cosmos 1331 Rocket 4.2 20:18:40 10° NNW 20:23:12 65° N 20:23:12 65° N
Spot 2 Rocket 3.6 20:27:13 71° W 20:27:13 71° W 20:32:12 10° NNW
Geosat 4.3 20:28:15 62° NNW 20:28:41 66° WNW 20:33:39 10° SW
Cosmos 1943 3.9 20:37:15 10° NNW 20:41:13 47° NNW 20:41:13 47° NNW
Cosmos 1634 Rocket 4.0 20:37:28 10° NNW 20:43:37 74° W 20:43:37 74° W
CZ-4C R/B 3.0 20:43:40 10° NNW 20:49:51 60° NNE 20:49:51 60° NNE
Resurs 01 Rocket 3.7 20:56:48 25° W 20:56:48 25° W 21:00:01 10° NW
USA 215 4.1 21:21:44 43° NNW 21:21:44 43° NNW 21:27:49 10° W
